Greenville, AL

11:26 PM CDT on September 19, 2017 (GMT -0500)
Greenville Municipal

Weather History for KPRN - August, 2013

Change the Weather History Date:

Sunday, August 25, 2013

  Actual Average Record
Temperature  
Mean Temperature 80 °F -  
Max Temperature 88 °F 91 °F 102 °F (1938)
Min Temperature 72 °F 68 °F 60 °F (1978)
Cooling Degree Days 15    
Growing Degree Days 30 (Base 50)    
Moisture  
Dew Point 70 °F    
Average Humidity 80    
Maximum Humidity 94    
Minimum Humidity 51    
Precipitation  
Precipitation 0.00 in - - ()
Sea Level Pressure  
Sea Level Pressure 30.20 in    
Wind  
Wind Speed 6 mph (East)    
Max Wind Speed 14 mph    
Max Gust Speed 20 mph    
Visibility 10 miles    
Events      
Averages and records for this station are not official NWS values.
T = Trace of Precipitation, MM = Missing Value Source: NWS Daily Summary

Daily Weather History Graph

Daily Weather History Graph

Search for Another Location

Airport or City:

Trip Planner

Search our weather history database for the weather conditions in past years. The results will help you decide how hot, cold, wet, or windy it might be!

Date:

Astronomy

Aug. 25, 2013 Rise Set
Actual Time 6:17 AM CDT 7:18 PM CDT
Civil Twilight 5:52 AM CDT 7:43 PM CDT
Nautical Twilight 5:22 AM CDT 8:13 PM CDT
Astronomical Twilight 4:52 AM CDT 8:44 PM CDT
Moon 10:12 PM CDT (8/25) 10:57 AM CDT (8/25)
Length of Visible Light 13h 51m
Length of Day
13h 00m
Waning Gibbous, 75% of the Moon is Illuminated
Aug 25
Waning Gibbous
Aug 28
Last Quarter
Sep 5
New
Sep 12
First Quarter
Sep 19
Full

Hourly Weather History & Observations

Time (CDT) Temp. Heat Index Dew Point Humidity Pressure Visibility Wind Dir Wind Speed Gust Speed Precip Events Conditions
12:32 AM 75.2 °F - 71.6 °F 89% 30.19 in 10.0 mi East 8.1 mph - N/A   Mostly Cloudy
12:56 AM 75.0 °F - 72.0 °F 90% 30.17 in 10.0 mi ESE 4.6 mph - N/A   Overcast
1:25 AM 75.2 °F - 71.6 °F 89% 30.18 in 10.0 mi ESE 4.6 mph - N/A   Mostly Cloudy
1:33 AM 75.2 °F - 71.6 °F 89% 30.18 in 10.0 mi East 4.6 mph - N/A   Overcast
1:44 AM 75.2 °F - 71.6 °F 89% 30.18 in 9.0 mi East 3.5 mph - N/A   Overcast
1:56 AM 75.0 °F - 72.0 °F 90% 30.17 in 10.0 mi East 4.6 mph - N/A   Overcast
2:36 AM 73.4 °F - 69.8 °F 88% 30.17 in 10.0 mi East 4.6 mph - N/A   Scattered Clouds
2:44 AM 73.4 °F - 69.8 °F 88% 30.18 in 10.0 mi Calm Calm - N/A   Scattered Clouds
2:56 AM 73.0 °F - 71.1 °F 93% 30.17 in 10.0 mi Calm Calm - N/A   Mostly Cloudy
3:19 AM 73.4 °F - 71.6 °F 94% 30.18 in 10.0 mi ESE 3.5 mph - N/A   Overcast
3:44 AM 73.4 °F - 71.6 °F 94% 30.18 in 9.0 mi East 4.6 mph - N/A   Mostly Cloudy
3:56 AM 73.9 °F - 71.1 °F 91% 30.17 in 8.0 mi East 4.6 mph - N/A   Mostly Cloudy
4:03 AM 73.4 °F - 71.6 °F 94% 30.18 in 8.0 mi East 4.6 mph - N/A   Mostly Cloudy
4:51 AM 73.4 °F - 71.6 °F 94% 30.19 in 8.0 mi East 5.8 mph - N/A   Scattered Clouds
4:56 AM 73.9 °F - 71.1 °F 91% 30.17 in 8.0 mi East 5.8 mph - N/A   Scattered Clouds
6:56 AM 73.0 °F - 69.1 °F 87% 30.21 in 6.0 mi East 5.8 mph - N/A   Clear
7:56 AM 73.9 °F - 70.0 °F 87% 30.22 in 8.0 mi ESE 9.2 mph - N/A   Scattered Clouds
8:08 AM 73.4 °F - 69.8 °F 88% 30.24 in 8.0 mi East 8.1 mph - N/A   Mostly Cloudy
8:20 AM 73.4 °F - 69.8 °F 88% 30.24 in 9.0 mi East 6.9 mph - N/A   Overcast
8:56 AM 77.0 °F - 70.0 °F 79% 30.24 in 10.0 mi ESE 12.7 mph 17.3 mph N/A   Mostly Cloudy
9:56 AM 80.1 °F 83.6 °F 71.1 °F 74% 30.24 in 10.0 mi East 13.8 mph 19.6 mph N/A   Scattered Clouds
10:56 AM 84.0 °F 89.0 °F 71.1 °F 65% 30.22 in 10.0 mi East 11.5 mph - N/A   Clear
11:56 AM 84.0 °F 89.0 °F 71.1 °F 65% 30.22 in 10.0 mi East 9.2 mph - N/A   Mostly Cloudy
12:33 PM 86.0 °F 91.8 °F 71.6 °F 62% 30.22 in 10.0 mi East 9.2 mph - N/A   Scattered Clouds
12:56 PM 86.0 °F 91.5 °F 71.1 °F 61% 30.20 in 10.0 mi ENE 6.9 mph - N/A   Partly Cloudy
1:56 PM 86.0 °F 90.7 °F 70.0 °F 59% 30.19 in 10.0 mi East 6.9 mph 18.4 mph N/A   Scattered Clouds
2:56 PM 88.0 °F 92.9 °F 70.0 °F 55% 30.17 in 10.0 mi East 9.2 mph - N/A   Scattered Clouds
4:56 PM 86.0 °F 88.2 °F 66.0 °F 51% 30.17 in 10.0 mi East 10.4 mph 17.3 mph N/A   Partly Cloudy
5:56 PM 84.0 °F 86.3 °F 66.0 °F 55% 30.17 in 10.0 mi East 6.9 mph - N/A   Clear
6:56 PM 80.1 °F 82.7 °F 68.0 °F 67% 30.19 in 10.0 mi ENE 4.6 mph - N/A   Clear
7:56 PM 75.0 °F - 68.0 °F 79% 30.20 in 10.0 mi ENE 4.6 mph - N/A   Clear
8:56 PM 73.9 °F - 66.9 °F 79% 30.22 in 10.0 mi East 4.6 mph - N/A   Clear
9:56 PM 73.9 °F - 66.0 °F 76% 30.23 in 10.0 mi East 4.6 mph - N/A   Clear
10:56 PM 72.0 °F - 64.9 °F 78% 30.24 in 10.0 mi East 5.8 mph - N/A   Clear
11:56 PM 72.0 °F - 64.0 °F 76% 30.22 in 10.0 mi East 5.8 mph - N/A   Clear